N4DCI Weather Reports


time (UTC)temp
C
wind
direction
speed
KPH
gust
KPH
rain 1hr
cm
rain 24hr
cm
rain mn
cm
humidity
%
barometer
mb
20260906043004 20 109 0.0 0.0 0.00 0.00 0.00 93 1017.5
20260906041503 21 109 0.0 0.0 0.00 0.00 0.00 94 1017.4
20260906040005 21 109 0.0 0.0 0.00 0.00 0.00 93 1017.5
20260906034503 21 109 0.0 0.0 0.00 0.00 0.00 93 1017.8
20260906033003 21 109 0.0 0.0 0.00 0.00 0.00 93 1017.8
20260906031504 21 109 0.0 1.6 0.00 0.00 0.00 92 1017.8
20260906030003 21 108 0.0 1.6 0.00 0.00 0.00 92 1017.8
20260906023003 21 109 0.0 1.6 0.00 0.00 0.00 92 1017.8
20260906021503 21 109 0.0 0.0 0.00 0.00 0.00 91 1017.3
20260906020008 21 109 0.0 0.0 0.00 0.00 0.00 90 1017.3
20260906014505 21 109 0.0 0.0 0.00 0.00 0.00 90 1017.4
20260906013004 22 108 1.6 3.2 0.00 0.00 0.00 89 1017.3
20260906011504 22 149 0.0 0.0 0.00 0.00 0.00 88 1017.4
20260906010005 22 149 0.0 1.6 0.00 0.00 0.00 87 1017.1
20260906003004 23 149 0.0 0.0 0.00 0.00 0.00 84 1017.1
20260906001504 23 149 0.0 0.0 0.00 0.00 0.00 83 1016.8
20260906000006 24 149 0.0 0.0 0.00 0.00 0.00 81 1016.5
20260905234503 25 149 0.0 3.2 0.00 0.00 0.00 79 1016.2
20260905233003 25 152 0.0 0.0 0.00 0.00 0.00 77 1016.2
20260905231503 26 152 0.0 4.8 0.00 0.00 0.00 76 1016.2
20260905230003 26 140 0.0 4.8 0.00 0.00 0.00 74 1016.2
20260905224503 26 126 0.0 0.0 0.00 0.00 0.00 72 1016.1
20260905213004 27 53 3.2 6.4 0.00 0.00 0.00 69 1016.7
20260905211503 26 127 0.0 9.7 0.00 0.00 0.00 69 1016.9
20260905210005 26 78 3.2 4.8 0.00 0.00 0.00 68 1017.0
20260905204509 27 128 0.0 6.4 0.00 0.00 0.00 67 1017.0
20260905203004 27 125 1.6 4.8 0.00 0.00 0.00 68 1017.3
20260905201504 26 88 0.0 6.4 0.00 0.00 0.00 68 1017.6
20260905200006 26 74 1.6 6.4 0.00 0.00 0.00 70 1017.6
20260905194503 25 137 1.6 3.2 0.00 0.00 0.00 73 1017.8
20260905191503 23 15 1.6 8.0 0.00 0.00 0.00 75 1017.8
20260905190004 23 109 1.6 8.0 0.00 0.00 0.00 74 1018.0
20260905184504 25 239 3.2 11.3 0.00 0.00 0.00 69 1019.3
20260905183003 26 228 6.4 9.7 0.00 0.00 0.00 69 1019.0
20260905181503 28 226 1.6 6.4 0.00 0.00 0.00 69 1018.0
20260905180003 29 329 1.6 9.7 0.00 0.00 0.00 65 1017.9
20260905174504 30 85 3.2 6.4 0.00 0.00 0.00 61 1017.9
20260905173004 31 244 0.0 12.9 0.00 0.00 0.00 59 1018.1
20260905170007 32 10 3.2 11.3 0.00 0.00 0.00 62 1018.4
20260905164503 31 290 3.2 8.0 0.00 0.00 0.00 60 1018.5
20260905163004 31 98 4.8 9.7 0.00 0.00 0.00 60 1018.7
20260905161503 31 69 4.8 9.7 0.00 0.00 0.00 64 1018.9
20260905160005 30 185 3.2 11.3 0.00 0.00 0.00 68 1018.9
20260905154503 30 96 6.4 14.5 0.00 0.00 0.00 67 1019.0
20260905153004 30 71 3.2 12.9 0.00 0.00 0.00 68 1018.9
20260905150003 28 207 1.6 9.7 0.00 0.00 0.00 73 1018.9
20260905144503 27 257 1.6 9.7 0.00 0.00 0.00 75 1019.0
20260905143002 27 132 1.6 12.9 0.00 0.00 0.00 77 1019.1
20260905141503 26 66 3.2 9.7 0.00 0.00 0.00 80 1019.0
20260905134503 24 69 3.2 9.7 0.00 0.00 0.00 89 1019.2
20260905133003 23 38 1.6 8.0 0.00 0.00 0.00 92 1019.4
20260905130004 22 72 1.6 8.0 0.00 0.00 0.00 95 1019.6
20260905124503 21 159 3.2 4.8 0.00 0.00 0.00 96 1019.5
20260905123003 21 43 0.0 4.8 0.00 0.00 0.00 97 1019.4
20260905121503 20 141 0.0 1.6 0.00 0.00 0.00 97 1019.3
20260905120003 20 143 0.0 0.0 0.00 0.00 0.00 97 1019.3
20260905114503 20 142 0.0 0.0 0.00 0.00 0.00 97 1019.0
20260905113003 20 142 0.0 0.0 0.00 0.00 0.00 97 1018.7
20260905110005 20 142 0.0 0.0 0.00 0.00 0.00 97 1018.5
20260905104504 20 142 0.0 0.0 0.00 0.00 0.00 97 1018.1
20260905103003 20 142 0.0 0.0 0.00 0.00 0.00 97 1018.1
20260905101503 20 142 0.0 0.0 0.00 0.00 0.00 97 1018.0
20260905100004 20 142 0.0 0.0 0.00 0.00 0.00 97 1018.0
20260905094503 20 142 0.0 0.0 0.00 0.00 0.00 97 1017.9
20260905091502 20 142 0.0 0.0 0.00 0.00 0.00 97 1018.1
20260905090005 21 142 0.0 0.0 0.00 0.00 0.00 97 1018.2
20260905084503 21 142 0.0 0.0 0.00 0.00 0.00 97 1018.3
20260905083003 21 142 0.0 4.8 0.00 0.00 0.00 97 1018.6
20260905081503 21 142 0.0 0.0 0.00 0.00 0.00 97 1018.7
20260905080005 21 142 0.0 0.0 0.00 0.00 0.00 96 1018.9
20260905074503 21 142 0.0 0.0 0.00 0.00 0.00 96 1018.9
20260905071503 21 142 0.0 0.0 0.00 0.00 0.00 96 1019.0
20260905070005 21 142 0.0 0.0 0.00 0.00 0.00 96 1019.2
20260905064502 21 142 0.0 0.0 0.00 0.00 0.00 96 1019.3
20260905063003 21 142 0.0 0.0 0.00 0.00 0.00 96 1019.5
20260905061503 21 142 0.0 0.0 0.00 0.00 0.00 96 1019.6
20260905055958 21 142 0.0 0.0 0.00 0.00 0.00 96 1019.6
20260905054458 21 142 0.0 0.0 0.00 0.00 0.00 96 1019.8
20260905052958 21 142 0.0 0.0 0.00 0.00 0.00 94 1020.0
20260905051458 21 142 0.0 0.0 0.00 0.00 0.00 94 1019.8
20260905050001 21 142 0.0 0.0 0.00 0.00 0.00 94 1020.0
20260905044502 22 142 0.0 0.0 0.00 0.00 0.00 94 1019.8